NOAA 16 DEB, 41213

Orbit data source: Space-Track

NOAA 16 DEB, 41213 is space debris in SSO originally from a launch on Thu, 21 Sep 2000 UTC launched from the Air Force Western Test Range (AFWTR). Debris objects in space refer to the collection of defunct objects orbiting the Earth. Examples of debris include non-operational satellites, rocket bodies, and fragments generated from explosions, collisions, or faulty payload assembly.

Loading next visibility...
Identifier
41213, 2000-055DS
Orbit
SSO
Country
Flag of USUS
Related business
Manufacturer
Unknown
Mission
Spacecraft
Bus & Motor
Unknown
Mass
Unknown
Launch date (UTC)
2000-09-21 (25 years ago)
Launch vehicle
Unknown
Launch site
Air Force Western Test Range (AFWTR)
Object type
Payload
Rocket body
Debris
Shape & HBR
Unknown shape, 0.1 m
Radar Cross Section
Small (<0.1 m²)

Expand to show TLE details & history
Last TLE update: 9 hours ago

TLE from 9 hours ago
0 NOAA 16 DEB
1 41213U 00055DS  26038.05303086  .00182484  00000-0  11734-1 0  9999
2 41213  98.9660 263.5689 0002832 319.0692  41.0319 15.07481554529548
Epoch: 2026-02-07T01:16Z
TLE epoch observation values (Epoch: 2026-02-07T01:16:21.866Z)
Latitude
0.00003°
Longitude
107.29571°
Altitude
545.444 km
Speed
7.59 km/s
True Right ascension
17h 34m 16s
True Declination
0° 00' 00"
Sunlit
Object was in daylight at epoch
Visualization orbit readout
Latitude
Unknown
Longitude
Unknown
Altitude
Unknown
Speed
Unknown
Apparent Right ascension
Unknown
Apparent Declination
Unknown
Sunlit
N/A
Visualization observer readout
Local Sidereal Time
12:38:03
Azimuth
Unknown
Elevation
Unknown
Doppler factor
Unknown
Orbital elements
Apogee altitude
542.914 km
Perigee altitude
538.995 km
Semi-major axis
6,919.091 km
Eccentricity
0.00028
Inclination
98.966°
RAAN
263.5689°
Arg. of periapsis
319.0692°
True anomaly
41.05321°
Mean anomaly
41.0319°
Eccentric anomaly
41.04255°
Mean motion
3.77111 °/min
Orbital period
95.46 mins
BSTAR
0.011734
Loading maneuver chart data...
Computing Atmospheric mass density...
Loading historical data...
Loading historical data...
Loading historical data...
Loading historical data...
Loading historical data...
Loading historical data...
Loading historical data...

Documentation

Showing up to 5 results
|